Home > Weather > Guildford > Past weeks

Flag for United Kingdom Past Weather in Guildford, England, United Kingdom — Yesterday and Last 2 Weeks

Now
66 °F

Sprinkles. Scattered clouds.


Feels Like: 66 °F
Forecast: 57 / 71 °F
Wind: 16 mph from Southwest

Location: Farnborough Airport

Current Time: Aug 28, 2016 at 3:12:57 PM

Latest Report: Aug 28, 2016 at 2:20 PM


Visibility: N/A

Pressure: 29.92 "Hg

Humidity: 83%

Dew Point: 61 °F

Location of GuildfordLocation

Past Weather in Guildford — Graph

°F

Guildford Temperature Yesterday

Maximum temperature yesterday: 77 °F (at 1:50 PM)
Minimum temperature yesterday: 57 °F (at 7:50 AM)
Average temperature yesterday: 72 °F

High & Low Weather Summary for the Past Weeks

 TemperatureHumidityPressure
High86 °F (Aug 24, 2:50 PM)100% (Aug 16, 6:50 AM)30.30 "Hg (Aug 16, 6:50 AM)
Low46 °F (Aug 16, 6:50 AM)30% (Aug 26, 4:20 PM)29.65 "Hg (Aug 19, 5:20 PM)
Average69 °F67%30.02 "Hg
* Reported Aug 13 1:20 PM — Aug 28 1:50 PM, Guildford, Weather by CustomWeather, © 2016

Note: Actual official high and low records may vary slightly from our data, if they occured in-between our weather recording intervals... More about our weather records

Advertising

Guildford Weather History for the Previous 24 Hours

Scroll right to see more
 ConditionsComfort  
Time TempWeatherWind HumidityBarometerVisibility
1:50 PM
Sun, Aug 28
66 °FScattered showers. Scattered clouds.17 mph83%29.92 "HgN/A
1:20 PM66 °FScattered showers. Scattered clouds.14 mph88%29.92 "HgN/A
12:50 PM64 °FScattered showers. Scattered clouds.13 mph94%29.92 "HgN/A
12:20 PM66 °FRain showers. Broken clouds.10 mph88%29.92 "HgN/A
11:50 AM66 °FRain showers. Broken clouds.17 mph78%29.92 "HgN/A
11:20 AM66 °FPartly sunny.13 mph78%29.92 "HgN/A
10:50 AM64 °FPartly sunny.13 mph83%29.92 "HgN/A
10:20 AM66 °FPartly sunny.14 mph78%29.92 "HgN/A
9:50 AM64 °FPartly sunny.12 mph83%29.89 "HgN/A
9:20 AM64 °FPartly sunny.12 mph83%29.89 "HgN/A
8:50 AM64 °FSprinkles. Partly sunny.9 mph83%29.89 "HgN/A
8:20 AM64 °FScattered clouds.8 mph83%29.89 "HgN/A
7:50 AM63 °FScattered clouds.8 mph88%29.89 "HgN/A
7:50 PM
Sat, Aug 27
72 °FClear.6 mph78%29.89 "Hg6 mi
7:20 PM72 °FClear.9 mph78%29.89 "Hg6 mi
6:50 PM73 °FPassing clouds.10 mph74%29.89 "Hg6 mi
6:20 PM73 °FPassing clouds.9 mph74%29.89 "Hg6 mi
5:50 PM75 °FScattered clouds.8 mph69%29.89 "Hg6 mi
5:20 PM77 °FScattered clouds.9 mph69%29.89 "Hg6 mi
4:50 PM75 °FScattered clouds.6 mph65%29.92 "Hg6 mi
4:20 PM75 °FScattered clouds.2 mph65%29.92 "HgN/A
3:50 PM77 °FPartly sunny.8 mph61%29.89 "HgN/A
3:20 PM75 °FPartly sunny.12 mph65%29.92 "HgN/A
Weather by CustomWeather, © 2016

See weather overviewHow to use our weather pages